This demonstration page uses our WeatherBlox Daily Observations layout. Learn more.

Left ArrowRight Arrow

Hourly Observations for September 1, 2015

Temp ( °F °C ) Dew Point ( °F °C ) Humidity (%) Winds ( mph kmh ) Pressure ( in mb ) Visibility ( mi km ) Precip ( " mm )
12:51 am 00:51 Cloudy with Light Rain 68 20 66 18.9 93 93 WNW 20 31 29.93 1013 10 16.0934 0.01 0.254
1:51 am 01:51 Cloudy 69 20.6 66 18.9 90 90 NW 10 17 29.9 1013 10 16.0934 0.02 0.508
2:37 am 02:37 Mostly Cloudy with Light Rain 67 19.4 65 18.3 93 93 WSW 14 22 29.94 1014 10 16.0934 0 0.0254
2:51 am 02:51 Mostly Cloudy 68 20 66 18.9 93 93 W 10 17 29.89 1012 10 16.0934 0 0.0254
3:51 am 03:51 Clear 68 20 66 18.9 93 93 Calm 29.88 1012 10 16.0934 0 0
4:51 am 04:51 Clear 69 20.6 66 18.9 90 90 Calm 29.88 1012 10 16.0934 0 0
5:51 am 05:51 Clear 69 20.6 66 18.9 90 90 NE 3 6 29.88 1012 10 16.0934 0 0
6:51 am 06:51 Sunny 69 20.6 66 18.9 90 90 SW 3 6 29.92 1013 10 16.0934 0 0
7:51 am 07:51 Sunny 70 21.1 66 18.9 87 87 W 5 7 29.94 1014 10 16.0934 0 0
8:51 am 08:51 Sunny 72 22.2 65 18.3 79 79 WNW 7 11 29.96 1015 10 16.0934 0 0
9:51 am 09:51 Sunny 73 22.8 65 18.3 76 76 Calm 29.96 1015 10 16.0934 0 0
10:51 am 10:51 Sunny 76 24.4 64 17.8 67 67 Calm 29.94 1014 10 16.0934 0 0
11:51 am 11:51 Sunny 78 25.6 64 17.8 62 62 Calm 29.92 1013 10 16.0934 0 0
12:51 pm 12:51 Sunny 80 26.7 65 18.3 60 60 Calm 29.91 1013 10 16.0934 0 0
1:51 pm 13:51 Sunny 85 29.4 65 18.3 51 51 VRB 3 6 29.88 1012 10 16.0934 0 0
2:51 pm 14:51 Sunny 87 30.6 59 15 39 39 Calm 29.85 1011 10 16.0934 0 0
3:51 pm 15:51 Sunny 88 31.1 60 15.6 39 39 NW 6 9 29.83 1010 10 16.0934 0 0
4:51 pm 16:51 Sunny 87 30.6 61 16.1 42 42 WNW 5 7 29.81 1010 10 16.0934 0 0
5:51 pm 17:51 Sunny 83 28.3 62 16.7 49 49 W 6 9 29.83 1010 10 16.0934 0 0
6:51 pm 18:51 Clear 81 27.2 64 17.8 57 57 NW 5 7 29.83 1010 10 16.0934 0 0
7:51 pm 19:51 Clear 80 26.7 65 18.3 60 60 NW 6 9 29.86 1011 10 16.0934 0 0
8:51 pm 20:51 Clear 78 25.6 67 19.4 69 69 Calm 29.89 1012 10 16.0934 0 0
9:51 pm 21:51 Clear 76 24.4 68 20 77 77 NE 3 6 29.89 1012 10 16.0934 0 0
10:51 pm 22:51 Clear 75 23.9 68 20 79 79 Calm 29.88 1012 10 16.0934 0 0
11:51 pm 23:51 Clear 74 23.3 68 20 82 82 SE 5 7 29.9 1012 10 16.0934 0 0

Powered by AerisWeather